Location: Elstree
(51.6403°N, 0.2969°W)
Time: 20:36:14
(UTC+00:00)

Terra - Pass Details

Date: 26 June 2021
Orbit: 701 x 703 km, 98.2° (Epoch: 24 July)

Event Time Altitude Azimuth Distance (km) Brightness Sun altitude
Exits shadow 21:42:46 10° 164° (SSE) 2,157 3.7 -8.9°
Maximum altitude 21:47:31 90° 265° (W) 711 1.9 -9.3°
Drops below altitude 10° 21:52:19 10° 345° (NNW) 2,184 5.8 -9.6°
Sets 21:54:35 0° 346° (NNW) 3,106 6.9 -9.8°
